Tracking 35030 objects as of 11-Aug-2026
HD Live streaming from Space Station
objects crossing your sky now

CHUBUSAT-1


CHUBUSAT-1 is no longer on orbit
CHUBUSAT-1 is classified as:


NORAD ID: 40300
Int'l Code: 2014-070C
Launch date: November 6, 2014
Source: Japan (JPN)
Launch site: Orenburg, Russia (OREN)
Decay date: 2025-01-16

Uplink (MHz): 145.980
Downlink (MHz): 437.485
Beacon (MHz): 437.485
Mode: 1k2 9k6 CW
Call sign: JJ2YJY
Status: Inactive


CHUBUSAT-1 is a 110-pound (50-kg) satellite that was designed by Nagoya University in Japan and carries optical and infrared cameras to observe Earth and space debris.
Your satellite tracking list
Your tracking list is empty




NASA's NSSDC Master Catalog

Two Line Element Set (TLE):
1 40300U 14070C   25012.69875439  .14599716  24063-5  11754-3 0  9993
2 40300  97.0264  61.4205 0009153 258.8077 101.2201 16.52307711567468
Source of the keplerian elements: AFSPC